Weather History for KDZB - December, 2013

Change the Weather History Date:

Sunday, December 29, 2013

  Actual Average (KBMQ) Record (KBMQ)
Temperature  
Mean Temperature 44 °F -  
Max Temperature 56 °F 57 °F 75 °F (1996)
Min Temperature 31 °F 36 °F 30 °F (1997)
Degree Days  
Heating Degree Days 22    
Moisture  
Dew Point 41 °F    
Average Humidity 82    
Maximum Humidity 100    
Minimum Humidity 68    
Precipitation  
Precipitation 0.00 in - - ()
Sea Level Pressure  
Sea Level Pressure 30.10 in    
Wind  
Wind Speed 4 mph (NW)    
Max Wind Speed 16 mph    
Max Gust Speed 26 mph    
Visibility 9 miles    
Events      
Averages and records for this station are not official NWS values.
T = Trace of Precipitation, MM = Missing Value Source: NWS Daily Summary

Daily Weather History Graph

Daily Weather History Graph

Search for Another Location

Airport or City:

Trip Planner

Search our weather history database for the weather conditions in past years. The results will help you decide how hot, cold, wet, or windy it might be!

Date:

Astronomy

Dec. 29, 2013 Rise Set
Actual Time 6:29 AM MST 4:41 PM MST
Civil Twilight 6:03 AM MST 5:08 PM MST
Nautical Twilight 5:33 AM MST 5:38 PM MST
Astronomical Twilight 5:03 AM MST 6:07 PM MST
Moon 3:20 AM MST (12/29) 2:16 PM MST (12/29)
Length of Visible Light 11h 04m
Length of Day
10h 11m
Waning Crescent, 10% of the Moon is Illuminated
Dec 29
Waning Crescent
Jan 1
New
Jan 7
First Quarter
Jan 15
Full
Jan 23
Last Quarter

Hourly Weather History & Observations

Time (MST) Temp. Windchill Dew Point Humidity Pressure Visibility Wind Dir Wind Speed Gust Speed Precip Events Conditions
12:15 AM 50.5 °F - 47.1 °F 88% 29.99 in 10.0 mi Calm Calm - N/A   Overcast
12:35 AM 51.1 °F - 46.6 °F 85% 29.98 in 10.0 mi SSW 4.6 mph - N/A   Overcast
12:55 AM 51.4 °F - 46.4 °F 83% 29.98 in 10.0 mi Calm Calm - N/A   Overcast
1:15 AM 51.8 °F - 46.4 °F 82% 29.97 in 10.0 mi SW 3.5 mph - N/A   Overcast
1:35 AM 51.8 °F - 46.0 °F 81% 29.97 in 10.0 mi Calm Calm - N/A   Overcast
1:55 AM 51.8 °F - 46.0 °F 81% 29.95 in 10.0 mi SW 4.6 mph - N/A   Overcast
2:15 AM 51.8 °F - 45.9 °F 80% 29.96 in 10.0 mi SW 3.5 mph - N/A   Overcast
2:35 AM 51.4 °F - 45.5 °F 80% 29.96 in 10.0 mi SW 5.8 mph - N/A   Overcast
2:55 AM 51.1 °F - 45.5 °F 81% 29.96 in 10.0 mi SSW 3.5 mph - N/A   Overcast
3:15 AM 50.9 °F - 45.5 °F 82% 29.96 in 10.0 mi SW 3.5 mph - N/A   Overcast
3:35 AM 50.9 °F - 45.7 °F 82% 29.96 in 10.0 mi SW 3.5 mph - N/A   Overcast
3:55 AM 50.5 °F - 45.5 °F 83% 29.95 in 10.0 mi Calm Calm - N/A   Overcast
4:15 AM 50.2 °F - 45.3 °F 83% 29.96 in 10.0 mi Calm Calm - N/A   Overcast
4:35 AM 50.0 °F - 45.1 °F 83% 29.96 in 10.0 mi Calm Calm - N/A   Overcast
4:55 AM 48.2 °F - 44.4 °F 87% 29.97 in 10.0 mi Calm Calm - N/A   Overcast
5:15 AM 47.5 °F - 44.8 °F 90% 29.98 in 10.0 mi Calm Calm - N/A   Overcast
5:35 AM 48.0 °F - 45.9 °F 92% 29.98 in 10.0 mi Calm Calm - N/A   Overcast
5:55 AM 48.4 °F - 46.2 °F 92% 29.99 in 10.0 mi Calm Calm - N/A   Overcast
6:15 AM 48.9 °F - 46.4 °F 91% 30.00 in 10.0 mi Calm Calm - N/A   Overcast
6:35 AM 49.6 °F - 45.7 °F 86% 30.01 in 10.0 mi Calm Calm - N/A   Overcast
6:55 AM 50.2 °F - 45.7 °F 85% 30.02 in 10.0 mi WSW 3.5 mph - N/A   Overcast
7:15 AM 50.9 °F - 45.5 °F 82% 30.03 in 10.0 mi Calm Calm - N/A   Overcast
7:35 AM 51.3 °F - 45.7 °F 81% 30.04 in 10.0 mi Calm Calm - N/A   Overcast
7:55 AM 52.7 °F - 46.4 °F 79% 30.04 in 10.0 mi West 3.5 mph - N/A   Overcast
8:15 AM 53.2 °F - 45.3 °F 74% 30.05 in 10.0 mi WNW 3.5 mph - N/A   Overcast
8:35 AM 53.1 °F - 45.5 °F 75% 30.05 in 10.0 mi NW 3.5 mph - N/A   Overcast
8:55 AM 53.6 °F - 45.7 °F 75% 30.06 in 10.0 mi NNW 3.5 mph - N/A   Overcast
9:15 AM 54.5 °F - 45.7 °F 72% 30.06 in 10.0 mi WNW 3.5 mph - N/A   Overcast
9:35 AM 54.7 °F - 45.9 °F 72% 30.07 in 10.0 mi NW 5.8 mph - N/A   Overcast
9:55 AM 55.0 °F - 46.0 °F 72% 30.07 in 10.0 mi West 3.5 mph - N/A   Scattered Clouds
10:15 AM 55.4 °F - 45.7 °F 70% 30.07 in 10.0 mi WNW 4.6 mph - N/A   Scattered Clouds
10:35 AM 55.6 °F - 45.9 °F 70% 30.07 in 10.0 mi WNW 4.6 mph - N/A   Mostly Cloudy
10:55 AM 56.3 °F - 46.0 °F 68% 30.08 in 10.0 mi NW 4.6 mph - N/A   Mostly Cloudy
11:15 AM 56.5 °F - 46.0 °F 68% 30.07 in 10.0 mi North 4.6 mph - N/A   Overcast
11:35 AM 56.5 °F - 46.2 °F 68% 30.07 in 10.0 mi North 3.5 mph - N/A   Overcast
11:55 AM 56.3 °F - 46.2 °F 69% 30.07 in 10.0 mi North 3.5 mph - N/A   Overcast
12:15 PM 55.9 °F - 45.9 °F 69% 30.06 in 10.0 mi NNW 4.6 mph - N/A   Overcast
12:35 PM 56.1 °F - 45.9 °F 68% 30.05 in 10.0 mi NNW 4.6 mph - N/A   Overcast
12:55 PM 55.6 °F - 45.5 °F 69% 30.05 in 10.0 mi North 8.1 mph - N/A   Overcast
1:15 PM 54.7 °F - 45.5 °F 71% 30.05 in 10.0 mi North 4.6 mph - N/A   Overcast
1:35 PM 54.5 °F - 45.3 °F 71% 30.05 in 10.0 mi North 4.6 mph - N/A   Overcast
1:55 PM 54.3 °F - 45.5 °F 72% 30.05 in 10.0 mi North 3.5 mph - N/A   Overcast
2:15 PM 54.1 °F - 45.3 °F 72% 30.05 in 10.0 mi North 3.5 mph - N/A   Overcast
2:35 PM 54.5 °F - 45.1 °F 71% 30.07 in 10.0 mi North 3.5 mph - N/A   Overcast
2:55 PM 54.5 °F - 45.1 °F 71% 30.06 in 10.0 mi North 3.5 mph - N/A   Overcast
3:15 PM 52.0 °F - 42.3 °F 69% 30.09 in 10.0 mi NNW 16.1 mph 25.3 mph N/A   Overcast
3:35 PM 45.7 °F 38.8 °F 40.1 °F 81% 30.11 in 10.0 mi North 16.1 mph 25.3 mph N/A   Overcast
3:55 PM 43.5 °F 37.1 °F 38.8 °F 84% 30.12 in 7.0 mi NNW 12.7 mph 26.5 mph N/A   Overcast
4:15 PM 41.2 °F 34.5 °F 37.2 °F 86% 30.14 in 10.0 mi NNW 11.5 mph 21.9 mph N/A   Overcast
4:35 PM 39.9 °F 32.5 °F 35.8 °F 85% 30.15 in 10.0 mi NNW 12.7 mph 19.6 mph N/A   Overcast
4:55 PM 38.7 °F 30.5 °F 34.7 °F 86% 30.17 in 10.0 mi NNW 13.8 mph 23.0 mph N/A   Overcast
5:15 PM 38.1 °F 29.8 °F 33.8 °F 84% 30.17 in 7.0 mi NNW 13.8 mph 19.6 mph N/A   Overcast
5:35 PM 37.4 °F 29.8 °F 33.3 °F 85% 30.19 in 7.0 mi North 11.5 mph 18.4 mph N/A   Overcast
5:55 PM 37.4 °F 29.3 °F 32.9 °F 84% 30.20 in 10.0 mi North 12.7 mph 18.4 mph N/A   Overcast
6:15 PM 36.7 °F 28.9 °F 32.4 °F 84% 30.21 in 7.0 mi North 11.5 mph 16.1 mph N/A   Overcast
6:35 PM 35.4 °F 26.4 °F 32.0 °F 87% 30.22 in 7.0 mi NNW 13.8 mph 19.6 mph N/A   Overcast
6:55 PM 34.3 °F 25.0 °F 31.8 °F 90% 30.24 in 10.0 mi NNW 13.8 mph 21.9 mph N/A   Overcast
7:15 PM 34.0 °F 24.2 °F 31.1 °F 89% 30.25 in 10.0 mi NNW 15.0 mph 20.7 mph N/A   Overcast
7:35 PM 33.8 °F 25.3 °F 30.6 °F 88% 30.26 in 10.0 mi NNW 11.5 mph 18.4 mph N/A   Overcast
7:55 PM 33.4 °F 26.6 °F 30.6 °F 89% 30.27 in 7.0 mi NNW 8.1 mph - N/A   Overcast
8:15 PM 32.4 °F 22.5 °F 30.0 °F 91% 30.27 in 7.0 mi NW 13.8 mph 18.4 mph N/A   Overcast
8:35 PM 32.0 °F 23.6 °F 29.3 °F 90% 30.29 in 7.0 mi NW 10.4 mph 17.3 mph N/A   Overcast
8:55 PM 32.0 °F 22.5 °F 29.1 °F 89% 30.29 in 5.0 mi NNW 12.7 mph 18.4 mph N/A   Light Drizzle
9:15 PM 32.0 °F 22.1 °F 29.7 °F 91% 30.28 in 3.0 mi NNW 13.8 mph 18.4 mph N/A   Light Drizzle
9:35 PM 31.8 °F 21.4 °F 31.1 °F 97% 30.29 in 3.0 mi NNW 15.0 mph 18.4 mph N/A   Overcast
9:55 PM 31.5 °F 21.8 °F 31.5 °F 100% 30.30 in 5.0 mi NNW 12.7 mph 16.1 mph N/A   Overcast
10:15 PM 31.6 °F 25.1 °F 31.6 °F 100% 30.30 in 7.0 mi NNW 6.9 mph - N/A   Overcast
10:35 PM 31.6 °F 24.4 °F 31.5 °F 99% 30.30 in 4.0 mi NW 8.1 mph 17.3 mph N/A   Light Freezing Rain
10:55 PM 31.3 °F 24.7 °F 31.3 °F 100% 30.29 in 7.0 mi NW 6.9 mph - N/A   Overcast
11:15 PM 31.1 °F 22.4 °F 30.6 °F 98% 30.29 in 10.0 mi NW 10.4 mph 18.4 mph N/A   Overcast
11:35 PM 31.1 °F 21.9 °F 29.1 °F 92% 30.27 in 10.0 mi NW 11.5 mph 18.4 mph N/A   Overcast
11:55 PM 31.1 °F 21.9 °F 28.6 °F 90% 30.27 in 10.0 mi NW 11.5 mph 16.1 mph N/A   Overcast